User: anonymous   Login
Location: Unspecified
(0.0000°N, 0.0000°E)
Time: 01:05:36
(UTC+01:00)
Language:

Cosmos 1072 Rocket - Orbit

View from above orbital plane
View from above orbital plane
View from above satellite
View from above satellite

Ground track
Ground track

The orbit data is extracted from the following two-line orbital elements,

1 11239U 79003B   14329.78184106  .00000057  00000-0  42833-4 0  3977
2 11239 082.9401 062.1133 0042161 122.5207 348.4060 13.75752549799379
Epoch (UTC): 25 November 2014 18:45:51
Eccentricity: 0.0042161
inclination: 82.9401°
perigee height: 948 km
apogee height: 1010 km
right ascension of ascending node: 62.1133°
argument of perigee: 122.5207°
revolutions per day: 13.75752549
mean anomaly at epoch: 348.4060°
orbit number at epoch: 79937

The dashed part of the orbit path shows where the satellite is in the earth's shadow,  

DLR